Temperature
16 17 17 18 19 19 19 19 20 20 20 20 20 20 20 20 20 20 19 19 19 19 19 19 19 19 18 18 18 18 18 18 18 18 18 18 18 18 18 17 17 17 17
15 16 17 17 18 18 18 19 19 19 19 20 20 20 20 20 20 20 19 19 19 19 19 19 19 19 18 18 18 18 18 18 18 17 17 17 17 17 18 17 17 17 17
13 14 15 16 16 17 17 18 18 19 19 19 19 19 19 19 19 19 19 19 18 18 18 18 18 18 18 18 18 18 18 18 17 17 17 17 17 17 18 18 17 17 17
13 14 14 15 15 16 16 17 17 18 19 19 19 19 19 19 19 19 18 18 18 18 18 18 18 18 18 18 18 17 17 17 17 17 17 17 17 17 17 17 17 17 17
12 13 13 14 14 15 15 16 16 17 18 18 19 19 19 19 19 18 18 18 17 17 17 17 17 17 17 17 17 17 17 17 17 17 16 16 16 16 16 16 17 17 17
12 12 13 13 14 14 14 15 15 16 16 17 17 18 18 18 18 18 18 17 17 17 17 16 16 16 17 17 16 16 16 16 16 16 16 16 16 16 16 16 16 16 17
11 12 12 13 13 13 14 14 14 15 15 15 16 16 17 17 17 17 17 17 16 16 16 16 16 16 16 16 16 16 16 16 16 16 16 16 16 15 15 15 15 15 16
11 11 12 12 13 13 13 13 14 14 14 14 15 15 15 16 16 16 16 16 15 15 15 15 15 15 15 15 15 15 15 15 15 15 15 15 15 15 15 15 15 15 15
11 11 12 12 12 13 13 13 13 13 14 14 14 14 14 15 15 15 15 15 15 15 15 15 14 14 15 15 15 15 15 15 15 15 15 15 15 15 15 15 15 15 14
11 11 11 12 12 12 12 13 13 13 13 13 14 14 14 14 14 14 14 14 14 14 14 14 14 14 14 14 14 15 15 15 15 15 15 15 15 15 15 15 15 15 14
11 11 11 12 12 12 12 13 13 13 13 13 13 13 13 14 14 14 14 14 14 14 14 14 14 14 14 14 14 14 15 15 15 15 15 15 15 15 15 15 14 14 14
11 11 12 12 12 12 12 12 13 13 13 13 13 13 13 13 14 14 14 14 14 14 14 14 14 14 14 14 14 14 15 15 15 15 15 15 15 15 15 15 14 14 14
12 12 12 12 12 12 12 12 12 13 13 13 13 13 13 14 14 14 14 14 14 14 14 14 14 14 14 14 14 14 15 15 15 15 15 15 15 15 15 15 14 14 14
13 13 12 12 12 12 12 12 12 12 13 13 13 13 13 13 14 14 14 14 14 14 14 14 14 14 14 14 14 14 14 15 15 15 15 15 15 15 15 15 15 14 14
13 13 13 13 12 12 12 12 12 12 12 12 13 13 13 13 13 13 13 13 13 14 14 14 14 14 14 14 14 14 14 14 15 15 15 15 15 15 15 15 15 14 14
14 14 14 13 13 12 12 12 12 12 12 12 12 12 12 12 12 12 12 13 13 13 13 13 13 13 14 14 14 14 14 14 14 14 14 14 14 14 14 14 14 14 14
14 14 14 14 13 13 12 12 12 12 12 12 12 12 12 12 12 12 12 12 12 12 12 13 13 13 13 13 13 13 14 14 14 14 14 14 14 14 14 14 14 14 14
14 14 14 14 13 13 13 12 12 12 12 12 12 12 12 12 12 12 12 11 11 12 12 12 12 12 12 12 13 13 13 13 13 13 13 14 14 14 14 14 14 14 14
14 14 14 14 14 13 13 13 12 12 12 12 12 12 12 12 11 11 11 11 11 11 11 11 11 12 12 12 12 12 12 12 12 13 13 13 13 13 13 14 14 14 14
15 15 14 14 14 13 13 13 12 12 12 12 11 11 11 11 11 11 11 11 11 11 11 11 11 11 11 11 11 11 12 12 12 12 12 12 13 13 13 13 13 13 13
15 15 15 14 14 14 13 13 13 12 12 12 12 11 11 11 11 11 11 11 11 11 10 11 11 11 11 11 11 11 11 11 11 12 12 12 12 13 13 13 13 13 13
15 15 15 15 14 14 14 13 13 13 12 12 12 11 11 11 11 11 11 11 11 11 10 10 10 10 10 10 10 10 11 11 11 11 11 11 12 12 12 12 12 12 12
15 15 15 15 15 14 14 13 13 13 13 12 12 11 11 11 11 11 11 11 11 11 10 10 10 10 10 10 10 10 10 10 11 11 11 11 11 11 12 12 12 12 12
15 15 15 15 15 14 14 14 13 13 13 12 12 11 11 11 11 11 11 11 11 10 10 10 10 9 9 10 10 10 10 10 10 10 10 11 11 11 11 11 11 11 11
15 15 15 15 15 14 14 14 14 13 13 12 12 11 11 11 11 11 11 10 10 10 10 9 9 9 9 9 9 9 9 10 10 10 10 10 10 11 11 11 11 11 11
15 15 15 15 15 15 14 14 14 13 13 12 12 11 11 11 11 11 10 10 10 10 9 9 9 9 8 9 9 9 9 9 9 10 10 10 10 10 10 10 10 10 10
Wind_Speed
13 13 13 13 12 12 11 10 9 8 4 2 3 5 6 6 6 7 8 10 11 12 10 7 7 6 6 6 6 4 4 2 2 3 2 2 2 2 3 4 5 7 11
18 17 16 14 13 12 12 11 10 8 6 3 3 3 4 4 5 4 5 7 8 10 9 9 7 7 6 6 5 5 4 2 2 3 3 1 4 3 2 3 5 6 7
17 17 17 14 13 13 12 11 10 9 8 6 3 1 1 0 2 3 4 4 5 6 6 6 6 6 6 5 5 5 6 4 2 2 4 4 4 3 3 2 3 5 6
16 15 15 15 14 13 11 10 10 9 8 7 3 4 5 6 6 5 4 3 3 4 6 5 5 5 4 5 5 5 4 5 3 2 2 2 3 3 2 3 2 2 5
16 15 14 13 12 12 11 10 10 10 9 8 5 3 4 5 4 5 6 5 3 3 4 5 5 6 5 5 5 5 5 4 4 4 2 2 2 2 3 3 3 2 3
15 15 13 11 11 11 10 10 9 9 9 9 7 4 1 4 6 6 6 5 4 4 4 5 4 4 4 4 5 5 5 4 4 4 4 4 3 3 4 5 4 3 4
13 14 14 13 12 11 10 9 9 8 9 8 8 7 5 3 4 4 4 4 3 3 4 4 4 3 3 4 4 4 4 4 5 5 4 4 4 3 4 4 4 4 3
13 13 13 11 10 10 9 8 8 8 8 8 7 7 7 5 4 4 4 3 2 2 2 3 2 2 2 2 3 3 4 4 5 5 5 4 4 4 5 5 4 3 2
14 13 13 11 10 9 9 8 7 7 7 7 6 7 7 6 6 5 4 3 2 2 2 2 1 1 1 2 2 2 3 3 3 4 5 4 4 4 4 4 5 5 3
14 14 12 10 9 9 8 8 8 7 7 7 6 6 6 6 6 6 5 4 4 4 3 3 1 1 1 2 2 2 2 3 2 2 4 3 3 3 4 4 4 4 5
12 12 11 10 9 9 9 8 8 8 8 8 7 7 7 6 6 5 5 4 3 2 2 1 1 1 2 1 1 2 2 2 3 3 4 5 4 4 3 3 3 4 4
10 10 10 10 10 10 9 9 8 8 8 7 7 7 6 6 6 5 5 4 3 3 3 2 3 2 2 2 1 1 1 3 3 3 4 4 3 4 3 3 3 3 4
9 8 8 9 9 9 9 8 9 9 8 7 8 8 8 8 7 6 5 6 5 4 4 4 4 4 4 3 2 2 1 1 2 2 3 4 4 4 3 3 3 2 2
8 7 7 8 8 8 8 8 9 9 8 8 9 9 9 8 8 7 7 6 6 5 5 6 5 4 3 3 3 2 2 2 1 1 1 3 5 5 4 3 3 2 2
8 8 7 6 7 7 7 8 9 9 9 9 10 9 9 9 9 9 9 9 9 9 8 7 7 6 5 5 4 3 2 2 3 2 1 1 3 5 4 3 4 3 2
7 7 7 6 6 6 6 7 8 8 8 9 9 9 9 10 9 9 8 9 9 8 8 8 8 8 7 9 9 5 3 3 3 3 2 1 2 2 2 3 4 5 4
7 8 6 5 4 4 4 6 6 7 8 8 9 9 9 9 9 9 9 9 8 8 9 8 8 7 9 13 11 9 4 3 2 2 1 1 2 2 2 1 2 2 2
7 7 6 5 3 3 4 5 6 7 7 7 8 8 8 8 8 9 8 8 6 7 7 8 8 7 11 16 14 11 7 5 4 3 2 2 2 2 2 2 2 1 1
4 4 4 3 3 3 3 4 5 6 6 7 7 7 7 8 8 8 7 6 6 7 6 6 8 8 10 16 15 11 5 5 5 4 4 3 3 3 4 4 4 2 2
3 4 4 3 3 2 2 4 4 5 5 5 5 5 6 7 8 7 7 6 6 6 6 8 8 8 8 15 16 11 5 5 4 4 4 5 5 5 4 4 5 4 1
4 4 4 3 1 0 2 3 2 2 2 4 6 6 6 7 7 7 7 7 7 7 8 8 8 8 10 13 16 13 5 4 4 4 4 4 6 7 6 5 4 3 4
5 5 4 4 2 1 1 1 1 1 2 5 6 7 7 7 7 8 8 7 7 8 7 7 7 7 8 10 13 15 11 7 4 3 3 4 8 9 9 6 7 8 7
5 4 3 4 4 2 0 0 2 1 4 6 6 6 7 7 7 7 7 7 7 6 6 6 7 6 7 9 15 14 14 12 6 5 8 10 11 10 9 11 11 8 6
5 4 4 4 4 3 1 1 1 3 6 6 5 5 6 6 7 6 6 6 6 6 6 6 6 6 6 7 8 7 7 9 8 7 9 12 14 11 11 10 9 7 6
4 4 4 3 3 2 2 3 2 5 6 6 4 4 4 5 5 5 5 5 4 4 3 3 4 5 6 8 10 8 6 6 6 6 7 8 8 8 8 8 8 7 7
4 4 5 3 2 1 2 3 3 6 7 5 4 3 3 3 3 4 3 6 4 6 7 6 4 4 6 9 12 14 14 13 11 9 8 8 8 8 7 7 7 7 6
Wind_Direction
8 9 12 13 14 15 15 10 0 350 346 287 227 204 201 198 198 196 193 191 187 183 177 172 167 161 163 168 157 141 136 137 135 103 54 344 315 254 220 193 183 196 202
3 3 3 8 8 6 6 5 355 343 329 296 249 226 212 198 197 193 189 183 176 172 172 166 165 158 155 157 155 140 138 148 139 131 122 333 326 309 268 205 196 200 199
359 356 355 358 1 2 0 357 346 341 331 315 274 207 173 158 176 184 188 183 169 161 157 165 161 160 159 165 165 154 149 161 172 144 146 161 218 279 313 274 216 199 199
353 351 349 351 353 351 350 348 346 344 340 333 298 218 199 201 196 179 176 151 149 153 151 156 161 159 162 165 175 168 159 156 171 181 179 177 162 167 286 316 304 228 212
345 343 344 343 343 345 347 347 347 351 348 349 340 279 220 206 168 156 159 157 150 146 157 164 164 165 167 174 181 173 167 170 173 175 173 182 196 170 178 257 299 313 258
341 339 340 341 342 343 348 350 351 352 352 357 1 2 205 175 157 164 170 165 157 157 159 155 159 163 169 178 185 183 176 182 182 181 177 176 180 189 184 213 238 261 277
342 339 339 340 339 342 348 350 351 354 355 4 11 17 35 79 127 149 156 150 152 162 167 162 158 166 171 177 183 184 185 192 191 194 192 195 202 180 179 187 215 237 274
345 343 340 338 339 346 350 351 357 359 0 9 16 24 37 53 65 77 97 113 122 131 145 145 151 164 165 187 195 189 200 201 201 201 194 195 205 194 188 180 175 204 270
346 345 347 348 350 355 354 358 7 9 8 13 26 36 42 55 64 66 70 79 89 107 103 98 108 188 197 221 210 197 201 200 199 198 196 192 198 192 193 184 174 172 206
353 351 352 353 355 354 356 11 17 18 18 22 32 46 44 51 60 64 64 65 65 59 56 57 49 328 296 267 208 188 206 192 201 188 175 190 189 189 191 186 183 177 179
349 353 352 353 357 1 7 14 19 26 27 28 33 40 41 46 56 59 54 57 64 59 55 58 40 341 309 292 214 210 202 191 211 204 194 205 190 187 191 182 176 179 176
342 346 348 353 360 5 10 14 19 25 23 22 32 37 37 43 50 47 37 34 33 36 40 45 45 28 16 18 5 261 210 196 208 212 206 216 200 194 193 184 190 192 191
342 346 350 358 0 6 10 16 19 17 17 23 31 34 30 32 36 32 28 31 34 39 43 55 60 49 43 35 15 346 351 309 233 215 203 204 185 194 192 183 186 195 192
348 355 355 0 4 9 13 15 17 18 22 27 33 33 29 30 33 32 31 32 36 45 50 58 64 64 60 46 26 20 29 2 332 293 195 183 174 179 174 167 172 164 159
355 356 360 5 8 14 16 19 24 27 30 36 37 33 30 33 37 40 42 43 50 58 57 57 51 48 50 37 25 24 39 31 32 31 49 160 165 172 166 159 162 149 138
357 357 3 14 19 23 27 29 31 28 35 39 35 32 36 39 39 40 44 48 52 56 60 59 53 46 39 31 31 27 28 46 53 33 21 81 107 136 152 152 157 157 153
359 0 3 17 25 28 37 39 35 36 39 39 35 34 38 39 35 42 47 48 49 54 56 53 49 42 28 34 35 38 44 49 59 63 57 81 79 95 92 101 114 124 150
357 355 360 16 29 37 41 43 42 43 42 39 35 34 38 37 33 39 42 41 43 49 51 47 40 36 31 34 35 39 42 49 47 46 66 91 74 89 121 123 118 103 9
345 339 349 18 42 48 56 58 43 41 43 40 38 36 41 41 37 35 31 31 42 44 43 41 38 35 23 29 34 41 39 51 44 38 46 67 72 66 115 124 122 99 30
337 341 352 24 42 35 80 76 48 42 40 42 47 47 48 48 42 37 36 36 47 46 46 43 36 32 21 24 32 38 43 49 40 33 31 43 55 65 93 120 128 125 121
334 350 6 12 355 241 100 80 49 35 43 62 59 51 50 55 50 45 42 43 48 48 45 42 33 26 19 18 25 33 40 45 44 39 28 22 42 62 73 87 103 121 129
342 352 7 357 327 288 112 66 343 336 80 82 69 58 49 52 53 51 44 40 43 45 36 32 26 17 11 13 17 29 38 46 57 42 22 24 48 61 62 65 79 92 96
344 346 358 353 341 328 176 259 294 91 105 97 84 75 65 53 49 52 48 41 37 42 34 31 28 13 6 8 17 25 34 39 53 51 53 58 57 58 56 54 63 71 79
343 342 355 359 344 334 334 314 319 122 118 118 111 96 83 66 51 47 47 50 40 37 36 33 24 11 8 8 6 11 24 33 47 50 51 57 58 58 53 51 52 54 64
337 348 355 346 331 338 354 9 82 119 117 126 128 114 102 96 76 61 48 50 39 35 43 28 16 16 13 2 18 34 33 38 49 60 56 52 51 52 49 47 47 45 48
342 347 349 352 343 0 4 23 92 124 125 126 137 141 136 126 116 104 66 32 31 32 44 46 40 11 20 31 44 47 47 50 58 68 64 58 54 54 50 50 46 42 41
Height
1536 1533 1530 1528 1525 1523 1521 1519 1519 1518 1519 1519 1520 1521 1521 1523 1524 1526 1527 1529 1531 1533 1535 1538 1540 1542 1544 1546 1548 1549 1551 1552 1554 1555 1556 1557 1557 1558 1558 1559 1559 1559 1560
1535 1531 1529 1527 1524 1521 1519 1517 1516 1515 1515 1515 1515 1517 1517 1518 1520 1522 1524 1525 1527 1529 1531 1533 1536 1538 1541 1543 1544 1545 1547 1549 1551 1552 1553 1554 1556 1555 1556 1556 1556 1557 1558
1538 1533 1529 1526 1523 1520 1518 1515 1514 1512 1511 1511 1511 1512 1513 1514 1514 1517 1519 1521 1523 1525 1527 1530 1532 1534 1537 1539 1540 1542 1543 1545 1547 1548 1550 1550 1550 1552 1553 1553 1553 1554 1555
1539 1535 1530 1526 1523 1520 1517 1514 1511 1509 1507 1506 1506 1507 1507 1507 1509 1511 1513 1516 1518 1520 1523 1525 1528 1531 1533 1535 1537 1538 1539 1541 1542 1544 1545 1547 1548 1549 1549 1550 1550 1551 1552
1540 1535 1530 1526 1523 1519 1516 1513 1510 1507 1504 1503 1502 1502 1502 1503 1504 1506 1508 1510 1512 1515 1518 1520 1523 1525 1528 1531 1532 1534 1535 1536 1538 1539 1540 1541 1543 1544 1546 1546 1547 1548 1549
1540 1535 1530 1526 1522 1518 1515 1512 1508 1505 1503 1500 1498 1498 1498 1499 1500 1502 1504 1506 1508 1510 1512 1514 1518 1521 1524 1526 1528 1530 1531 1532 1533 1534 1535 1537 1538 1539 1541 1542 1543 1544 1545
1539 1534 1529 1524 1521 1518 1514 1511 1508 1505 1502 1499 1497 1496 1496 1497 1498 1499 1502 1503 1505 1507 1508 1511 1513 1517 1520 1522 1525 1526 1527 1528 1529 1530 1531 1533 1534 1535 1536 1538 1538 1540 1541
1539 1534 1529 1525 1521 1518 1514 1512 1509 1506 1503 1500 1498 1496 1496 1496 1497 1498 1500 1502 1503 1505 1506 1509 1512 1514 1517 1519 1521 1523 1524 1525 1526 1527 1528 1529 1530 1531 1532 1534 1535 1536 1536
1540 1534 1529 1525 1522 1518 1515 1512 1509 1507 1504 1502 1500 1498 1497 1497 1498 1499 1500 1501 1502 1504 1505 1507 1509 1512 1514 1516 1518 1520 1521 1522 1523 1524 1525 1526 1527 1528 1529 1530 1531 1532 1532
1541 1535 1530 1526 1523 1520 1517 1514 1511 1509 1507 1504 1503 1501 1500 1500 1500 1500 1501 1502 1503 1504 1505 1506 1508 1510 1512 1515 1516 1518 1519 1520 1521 1522 1523 1524 1525 1525 1526 1527 1527 1528 1529
1544 1538 1533 1529 1525 1521 1518 1516 1513 1511 1509 1507 1506 1504 1503 1503 1503 1503 1503 1504 1504 1505 1506 1507 1509 1510 1511 1513 1515 1516 1518 1519 1520 1521 1522 1522 1523 1523 1524 1525 1525 1525 1526
1547 1542 1536 1532 1528 1524 1521 1518 1516 1514 1512 1511 1509 1508 1507 1506 1506 1506 1506 1506 1507 1507 1508 1509 1510 1510 1512 1513 1515 1516 1517 1518 1519 1520 1521 1521 1522 1522 1523 1523 1523 1523 1523
1549 1545 1540 1536 1532 1528 1524 1522 1519 1517 1515 1514 1512 1511 1510 1509 1509 1509 1509 1509 1509 1509 1510 1510 1511 1512 1513 1514 1515 1516 1517 1518 1518 1519 1520 1520 1521 1521 1521 1521 1521 1521 1522
1553 1548 1544 1540 1536 1533 1529 1526 1523 1520 1518 1517 1515 1514 1513 1512 1511 1511 1511 1510 1510 1511 1511 1511 1512 1513 1513 1514 1514 1515 1516 1517 1518 1518 1519 1519 1520 1520 1520 1520 1520 1520 1520
1555 1551 1548 1545 1541 1537 1534 1531 1528 1525 1523 1521 1519 1518 1517 1516 1514 1513 1513 1512 1512 1512 1512 1512 1512 1513 1513 1513 1514 1514 1515 1515 1516 1517 1517 1518 1519 1519 1519 1519 1519 1519 1519
1558 1554 1551 1548 1545 1542 1539 1536 1533 1530 1528 1525 1523 1522 1521 1519 1518 1517 1516 1515 1514 1513 1513 1513 1513 1512 1512 1512 1513 1513 1513 1514 1514 1515 1516 1517 1517 1518 1519 1519 1519 1519 1519
1560 1557 1554 1551 1548 1546 1543 1540 1537 1535 1532 1529 1528 1526 1524 1522 1521 1520 1518 1517 1516 1515 1514 1514 1513 1513 1512 1512 1512 1512 1512 1512 1513 1513 1514 1515 1516 1517 1518 1518 1518 1519 1519
1562 1560 1557 1554 1551 1549 1546 1543 1541 1538 1536 1533 1531 1530 1528 1526 1524 1523 1521 1520 1519 1517 1516 1515 1514 1513 1513 1512 1511 1510 1510 1510 1511 1511 1512 1513 1514 1515 1516 1517 1518 1518 1518
1564 1562 1559 1556 1554 1551 1549 1547 1544 1542 1539 1537 1535 1533 1531 1529 1527 1525 1524 1523 1521 1520 1518 1517 1516 1515 1513 1512 1511 1510 1510 1509 1510 1510 1511 1511 1512 1513 1514 1515 1516 1517 1517
1565 1563 1561 1558 1556 1554 1551 1549 1547 1545 1542 1540 1538 1536 1534 1532 1530 1528 1527 1525 1524 1522 1521 1519 1518 1516 1514 1513 1512 1511 1510 1509 1509 1509 1510 1510 1511 1511 1512 1514 1515 1516 1516
1566 1564 1562 1559 1557 1555 1553 1551 1549 1547 1546 1544 1541 1539 1537 1534 1533 1531 1530 1528 1526 1525 1523 1521 1519 1518 1516 1514 1512 1511 1510 1510 1509 1509 1509 1509 1510 1510 1511 1512 1513 1515 1516
1566 1564 1562 1561 1559 1557 1555 1553 1551 1550 1548 1546 1544 1542 1539 1537 1536 1534 1533 1531 1529 1527 1525 1524 1521 1519 1518 1516 1514 1512 1511 1510 1510 1509 1509 1509 1510 1510 1511 1512 1513 1514 1515
1567 1565 1563 1562 1560 1558 1557 1555 1553 1552 1550 1548 1546 1545 1543 1541 1539 1537 1536 1534 1532 1530 1528 1526 1524 1522 1520 1518 1516 1514 1513 1512 1511 1510 1510 1510 1511 1511 1511 1513 1514 1515 1515
1567 1566 1564 1563 1561 1559 1558 1556 1554 1553 1552 1550 1549 1547 1546 1544 1543 1541 1539 1538 1536 1533 1531 1529 1526 1524 1522 1520 1519 1517 1515 1514 1513 1513 1513 1512 1513 1513 1513 1514 1515 1515 1516
1568 1567 1565 1563 1562 1560 1559 1557 1556 1555 1553 1552 1551 1550 1548 1547 1546 1544 1543 1541 1539 1537 1534 1532 1530 1527 1525 1523 1522 1520 1518 1517 1516 1516 1516 1515 1515 1515 1516 1516 1516 1517 1517
1568 1567 1566 1564 1563 1561 1560 1558 1557 1556 1555 1553 1552 1551 1550 1549 1548 1547 1545 1544 1542 1539 1537 1535 1533 1530 1529 1527 1525 1523 1522 1521 1520 1519 1518 1518 1518 1518 1518 1518 1518 1519 1519